Location: ???????
(55.8982°N, 37.9626°E)
Time: 13:45:53
(UTC+00:00)

Daily predictions for brighter satellites

Satellite Brightness Start Highest point End
(mag) Time Altitude Azimuth Time Altitude Azimuth Time Altitude Azimuth
SL-16 R/B 2.3 18:09:27 10° NW 18:15:10 83° NE 18:20:51 10° SE
Cosmos 1302 Rocket 4.0 18:10:52 10° SSW 18:16:00 68° ESE 18:21:10 10° NNE
ISS -3.0 18:13:26 10° SW 18:16:28 32° SSE 18:19:31 10° E
CZ-4C R/B 2.0 18:12:33 10° SW 18:17:03 87° SE 18:23:00 10° NE
Cosmos 2016 Rocket 4.1 18:11:00 10° S 18:17:16 89° ESE 18:23:30 10° NNE
EP 1 4.2 18:15:15 10° NW 18:17:55 83° NE 18:20:33 10° SE
Cosmos 724 4.3 18:13:03 10° SW 18:19:01 74° SE 18:24:56 10° NE
NOSS 3 (A) 3.9 18:17:59 10° NW 18:20:00 68° NE 18:22:31 10° ESE
SL-08 R/B 3.4 18:17:26 10° NNE 18:22:19 83° ESE 18:27:05 10° SSW
CZ-4B R/B 2.6 18:20:35 10° SSE 18:23:56 64° ENE 18:27:24 10° N
NOSS 3-3 (C) 4.1 18:24:40 10° SSW 18:29:43 43° SE 18:35:44 10° NE
COSMOS 2406 3.7 18:24:53 10° S 18:30:14 42° ESE 18:35:36 10° NE
Cosmos 1980 Rocket 4.0 18:27:01 10° NW 18:31:37 26° WSW 18:36:11 10° SSW
Meteor 1-20 Rocket 4.3 18:26:26 10° NNW 18:32:02 83° ENE 18:37:43 10° SSE
USA 306 2.1 18:29:33 10° SW 18:32:16 32° SSE 18:34:07 10° E
Terra 3.5 18:31:37 10° SSW 18:35:45 30° W 18:39:55 10° NNW
Helios 1A Rocket 4.0 18:33:42 10° N 18:36:39 36° WNW 18:39:34 10° SW
YAOGAN 11 4.1 18:32:19 10° NNE 18:36:46 78° ESE 18:41:14 10° SSW
Cosmos 1602 Rocket 3.6 18:33:14 10° N 18:37:32 64° ENE 18:41:49 10° SSE
NOSS 3-4 (A) 3.8 18:33:17 10° NW 18:39:43 84° SW 18:47:21 10° SE
Cosmos 2333 Rocket 2.3 18:34:36 10° NW 18:40:19 79° WSW 18:46:02 10° SSE
NOSS 3-4 (C) 3.8 18:33:54 10° NW 18:40:21 84° SW 18:48:00 10° SE
CZ-4 R/B 4.0 18:41:13 10° WSW 18:42:45 12° W 18:44:18 10° WNW
USA 245 4.4 18:38:14 10° SSE 18:44:08 79° WSW 18:49:40 10° NNW
Cosmos 2061 Rocket 4.1 18:41:06 10° S 18:47:22 87° W 18:53:44 10° NNE
Cosmos 1933 3.4 18:45:01 10° S 18:48:42 52° E 18:52:26 10° NNE
Cosmos 1464 Rocket 4.5 18:44:40 10° SSE 18:50:23 43° E 18:56:12 10° NNE
Cosmos 44 Rocket 4.0 18:45:27 10° WSW 18:50:33 63° NW 18:55:45 10° NE
ATLAS 2AS CENTAUR R/B 3.7 18:44:45 10° W 18:51:27 52° NNW 18:58:05 10° ENE
Cosmos 1626 Rocket 4.2 18:49:53 10° NNW 18:54:09 54° W 18:58:25 10° S
Cosmos 1607 4.0 18:52:08 10° SW 18:58:21 89° NW 19:04:42 10° NE
Cosmos 2360 Rocket 2.2 18:52:42 10° NW 18:58:25 89° NE 19:03:37 13° SSE
SPOT 3 Rocket 3.9 18:53:32 10° S 18:58:38 64° WSW 19:03:46 10° NNW
Cosmos 1805 2.7 18:56:12 10° N 18:59:29 75° E 19:02:14 14° SSE
Cosmos 1782 4.3 18:56:31 10° SW 18:59:44 32° WNW 19:02:58 10° N
Ariane Rocket 3.2 18:57:13 10° S 19:02:16 74° WSW 19:07:22 10° NNW
Cosmos 1076 Rocket 4.0 18:58:25 10° N 19:02:34 46° ENE 19:06:00 14° SE
Cosmos 2098 Rocket 3.4 18:58:43 10° S 19:03:19 49° E 19:07:18 10° NNE
Cosmos 2333 4.3 18:57:37 10° NW 19:03:22 85° NE 19:08:32 13° SE
Meteor 1-25 Rocket 4.4 18:58:15 10° NNW 19:03:58 78° W 19:09:33 10° S
BREEZE-M DEB (TANK) 2.6 19:03:19 10° SW 19:05:14 18° S 19:05:37 17° SSE
Cosmos 220 Rocket 4.2 19:04:30 10° S 19:08:21 45° ESE 19:12:17 10° NE
Cosmos 1536 4.2 19:06:39 10° N 19:09:43 24° ENE 19:12:23 12° ESE
Cosmos 2219 Rocket 2.3 19:06:54 10° NNW 19:12:36 78° NE 19:17:33 14° SE
Helios 1A 4.2 19:10:08 10° NE 19:13:19 23° E 19:15:28 15° SE
Cosmos 1606 Rocket 3.9 19:12:21 13° SSE 19:15:57 48° E 19:20:08 10° NNE
Cosmos 2151 3.9 19:12:58 10° NNW 19:16:52 42° W 19:20:44 10° SSW
Cosmos 1763 Rocket 4.4 19:15:44 14° SSE 19:19:34 32° ESE 19:24:13 10° NE
Helios 1B rocket 3.1 19:18:06 14° SE 19:20:36 33° ENE 19:23:48 10° N
Okean 1 3.6 19:18:41 17° SSE 19:21:07 40° E 19:24:31 10° NNE
Okean O Rocket 3.7 19:18:03 10° SW 19:21:21 21° W 19:24:42 10° NW
Cosmos 990 Rocket 4.0 19:18:30 10° NNW 19:23:42 81° ENE 19:27:52 16° SSE
Cosmos 1726 Rocket 3.9 19:22:24 16° SSE 19:25:16 43° E 19:29:07 10° NNE
Cosmos 2034 Rocket 4.3 19:22:28 13° SSE 19:27:57 54° E 19:34:06 10° NNE
TSX-5 4.2 19:26:10 10° NNW 19:29:08 40° NE 19:31:39 14° ESE
Cosmos 2322 Rocket 2.6 19:23:48 10° NW 19:29:22 58° WSW 19:33:58 15° S
Okean 1-7 Rocket 3.8 19:25:20 10° NNW 19:29:48 70° W 19:33:33 14° S
RESURS DK-1 3.5 19:26:39 10° NNW 19:30:23 36° NE 19:34:01 10° ESE
Cosmos 1461 2.5 19:26:53 10° SSW 19:30:32 60° SE 19:34:09 10° NE
Cosmos 1470 4.3 19:29:18 10° NNE 19:31:50 20° ENE 19:33:54 12° ESE
CZ-2C R/B 3.3 19:30:01 13° SSW 19:32:08 31° W 19:34:42 10° NNW
CZ-4B R/B 4.4 19:28:12 10° SSW 19:32:42 40° W 19:37:16 10° NNW
Cosmos 1777 Rocket 4.5 19:29:43 10° NW 19:34:50 54° WSW 19:39:00 15° S
Cosmos 2082 Rocket 3.2 19:30:56 10° WSW 19:36:31 52° NW 19:42:07 10° NNE
GRACE-FO 1 4.4 19:37:11 18° S 19:39:43 87° W 19:43:14 10° N
GRACE-FO 2 4.4 19:37:39 18° S 19:40:11 86° W 19:43:43 10° N
Cosmos 1975 4.4 19:37:43 10° NNE 19:40:39 22° ENE 19:43:05 13° ESE
Cosmos 1437 Rocket 3.6 19:37:20 10° SW 19:40:46 44° WNW 19:44:15 10° N
Cosmos 1503 Rocket 4.3 19:36:42 10° NNW 19:41:49 60° WSW 19:45:44 17° S
Nadezhda 4 Rocket 4.2 19:36:22 10° NNW 19:42:28 68° W 19:47:52 13° S
Cosmos 909 Rocket 4.3 19:36:29 10° SW 19:42:45 78° NW 19:49:36 10° NE
Cosmos 2237 Rocket 3.5 19:42:08 10° NNW 19:47:23 36° NE 19:52:35 10° ESE
NOSS 3-3 (A) 4.1 19:43:30 10° WSW 19:49:01 77° NNW 19:55:49 10° NE
Cosmos 44 3.5 19:45:09 10° NW 19:50:35 80° SW 19:54:37 18° SE
Cosmos 1634 Rocket 4.4 19:48:17 17° SSE 19:52:44 48° E 19:58:39 10° NNE
ISS -3.2 19:49:44 10° WSW 19:52:53 38° S 19:54:30 23° SE
Cosmos 1354 Rocket 4.2 19:50:13 10° NNW 19:55:26 65° WSW 19:59:07 19° S
COSMOS 2428 3.0 19:50:26 10° NNW 19:56:08 64° NE 20:00:53 15° SE
Cosmos-2242 3.2 19:54:02 21° SSE 19:56:31 51° E 20:00:32 10° NNE
SL-16 R/B 3.8 19:54:12 10° NW 19:58:40 24° WSW 20:03:07 10° SSW
USA 306 2.7 19:56:58 10° WSW 19:58:04 20° WSW 19:58:04 20° WSW
CZ-2C R/B 4.2 19:56:27 10° ESE 20:00:44 26° NE 20:04:59 10° N
KORONAS-FOTON 4.4 19:59:46 24° SE 20:01:08 34° E 20:04:14 10° NNE
USA 290 2.0 20:01:14 21° SSW 20:03:14 75° ESE 20:06:22 10° NNE
Cosmos 2026 Rocket 4.1 19:59:04 10° NNW 20:05:27 78° W 20:10:23 18° S
Cosmos 1707 2.1 20:04:33 32° SSE 20:05:33 54° E 20:08:21 10° NNE
CZ-4C R/B 3.5 20:00:58 10° W 20:05:48 45° NNW 20:12:08 10° ENE
Cosmos 372 Rocket 3.9 20:02:04 10° NNW 20:07:13 84° ENE 20:10:44 21° SSE
Cosmos 1953 Rocket 3.9 20:05:31 10° NNW 20:09:48 57° W 20:12:42 19° S
COSMOS 2406 4.0 20:08:50 10° SW 20:14:27 53° NW 20:20:06 10° NNE
Aureole 1 Rocket 3.9 20:10:42 10° NNW 20:16:08 71° WSW 20:20:45 20° SSE
Meteor 1-14 Rocket 4.3 20:12:04 10° NNW 20:17:39 67° ENE 20:21:27 21° SSE
NOSS 3-3 (C) 4.4 20:14:45 10° WSW 20:20:22 67° NNW 20:27:17 10° NE
Cosmos 1271 Rocket 3.3 20:19:21 25° SE 20:20:31 33° E 20:23:37 10° NNE
Cosmos 2221 3.5 20:18:37 21° SE 20:20:34 31° E 20:24:17 10° NNE
GP-B 4.5 20:18:08 10° NNE 20:21:54 27° E 20:24:23 17° SE
Cosmos 540 Rocket 3.4 20:18:42 15° SSW 20:22:55 78° ESE 20:28:05 10° NNE
Cosmos 2058 Rocket 3.0 20:20:44 23° S 20:23:26 78° E 20:27:47 10° NNE
Cosmos 2333 Rocket 4.1 20:19:58 10° WNW 20:23:46 19° W 20:27:34 10° SW
Cosmos 1937 Rocket 3.6 20:19:53 10° NNW 20:25:02 70° ENE 20:28:40 19° SE
Cosmos 1766 3.6 20:24:45 10° NNW 20:27:50 41° W 20:29:18 24° SSW
Geosat 3.9 20:24:57 10° NE 20:30:00 83° ESE 20:34:37 12° SSW
Spot 4 3.8 20:28:46 23° SSE 20:31:44 89° ENE 20:36:34 10° NNW
BREEZE-M R/B 4.4 20:26:11 10° W 20:33:32 50° SSW 20:39:06 10° ESE
Cosmos 468 Rocket 4.1 20:30:46 21° S 20:34:11 60° ESE 20:39:22 10° NNE
Cosmos 1842 2.8 20:33:12 35° SSE 20:34:17 58° E 20:37:24 10° NNE
Cosmos 1833 4.1 20:29:39 11° SSW 20:35:03 85° ESE 20:40:43 10° NE
CZ-2C R/B 4.4 20:31:45 10° NNE 20:36:50 32° E 20:40:12 18° SE
ARIANE 5 R/B 2.6 20:34:30 25° SSE 20:37:04 83° WSW 20:41:35 10° NNW
Cosmos 2297 Rocket 3.7 20:35:27 16° SE 20:37:51 21° ESE 20:41:56 10° NE
ALOS 2 2.6 20:35:46 25° SSE 20:38:18 87° E 20:42:44 10° NNW
Meteor 2-6 Rocket 4.4 20:35:52 21° S 20:39:56 71° E 20:45:52 10° NNE
USA 234 4.0 20:35:51 10° ENE 20:41:34 31° SE 20:44:47 21° S
Cosmos 2360 Rocket 3.9 20:37:29 10° NW 20:41:44 22° WSW 20:45:21 12° SW
Cosmos 2322 3.8 20:36:05 10° NW 20:41:46 69° WSW 20:45:23 23° SSE
ATLAS 2AS CENTAUR R/B 3.8 20:37:00 10° WNW 20:43:32 46° N 20:50:02 10° E
Cosmos 1536 3.5 20:41:37 10° NNW 20:45:05 39° W 20:46:54 22° SSW
Helios 1A 3.6 20:44:25 10° N 20:48:13 48° WNW 20:51:11 15° SW
Helios 1B rocket 3.5 20:52:03 19° SW 20:53:37 27° W 20:56:41 10° NW
PSLV R/B 3.8 20:50:57 10° NNE 20:55:09 55° ESE 20:57:18 27° SSE
Cosmos 2219 Rocket 3.6 20:51:25 10° NW 20:56:01 26° WSW 20:59:14 16° SSW
Cosmos 1898 Rocket 3.7 20:51:32 10° NNW 20:56:38 59° WSW 20:59:35 25° S
SeaSat 1 3.0 20:55:07 11° ESE 20:59:45 55° NE 21:04:32 10° NNW
Cosmos 1766 Rocket 4.3 20:56:45 10° N 21:00:52 43° ENE 21:03:33 20° SE
Meteor 1-19 Rocket 4.4 20:57:24 23° S 21:01:02 65° E 21:06:56 10° NNE
Cosmos 1763 Rocket 4.1 20:55:50 10° SW 21:01:03 57° NW 21:06:16 10° NNE
Cosmos 1470 3.2 21:02:47 10° NNW 21:05:55 39° W 21:07:06 28° SW
Cosmos 1461 4.3 21:03:37 10° W 21:07:01 33° NNW 21:10:23 10° NE
RESURS DK-1 2.9 21:04:03 10° NW 21:07:48 40° WSW 21:09:14 29° SSW
Cosmos 2322 Rocket 4.4 21:09:54 10° WNW 21:12:13 13° W 21:14:34 10° WSW
NOSS 0 Rocket 4.1 21:06:11 10° NW 21:12:17 61° WSW 21:16:10 23° S
NOSS 8 (H) 4.1 21:11:22 10° WNW 21:14:11 54° SW 21:14:47 44° S
BREEZE-M DEB (TANK) 3.9 21:08:52 10° W 21:15:13 38° SSW 21:19:56 10° SE
Cosmos 1975 3.2 21:12:18 10° NNW 21:15:50 44° W 21:17:20 28° SSW
Cosmos 2084 4.4 21:11:50 10° NW 21:15:51 47° NNE 21:19:51 10° E
Intercosmos 24 3.8 21:13:56 10° N 21:18:11 78° ENE 21:19:53 30° SSE
MetOp-A 3.8 21:16:05 26° S 21:18:55 78° WSW 21:23:36 10° NNW
SL-16 R/B 3.3 21:13:34 10° NNW 21:19:02 44° NE 21:24:29 10° ESE
Lacrosse 4 Rocket 3.0 21:25:45 17° SE 21:26:44 19° ESE 21:29:37 10° ENE
ISS -1.6 21:26:35 10° WSW 21:27:25 14° WSW 21:27:25 14° WSW
SAR-Lupe-2 4.5 21:29:02 26° SW 21:30:04 32° W 21:33:07 10° NNW
CZ-2C R/B 4.4 21:26:46 10° N 21:31:03 49° WNW 21:34:13 17° SW
Cosmos 2237 Rocket 2.2 21:26:13 10° NW 21:31:54 72° WSW 21:35:41 22° SSE
Cosmos 841 Rocket 3.5 21:29:05 23° SSW 21:32:25 84° ESE 21:37:41 10° NNE
Cosmos 2279 Rocket 4.4 21:29:54 18° SSW 21:34:39 58° WNW 21:40:51 10° N
Meteor 1-11 Rocket 4.0 21:29:59 10° NNW 21:35:34 57° W 21:38:54 23° SSW
Cosmos 1980 3.8 21:30:19 10° NW 21:35:56 64° WSW 21:39:29 23° SSE
Cosmos 1812 Rocket 3.6 21:33:38 26° SSW 21:36:05 74° WNW 21:40:32 10° N
NOSS 8 (E) 4.3 21:34:41 10° WNW 21:37:31 48° SW 21:38:00 42° S
COSMOS 2428 3.6 21:35:02 10° NW 21:40:05 33° WSW 21:42:51 21° SSW
Meteor 2-20 Rocket 4.5 21:36:40 23° S 21:40:16 64° E 21:45:56 10° NNE
CZ-2C R/B 2.6 21:37:19 24° S 21:40:33 74° WSW 21:45:47 10° NNW
ACS3 Solar Sail 2.7 21:35:20 10° NNE 21:40:51 37° E 21:45:00 16° SSE
CZ-4C R/B 4.3 21:37:53 10° NE 21:40:52 28° E 21:42:10 22° SE
Meteor 2-4 Rocket 3.9 21:41:22 23° SSE 21:44:40 58° E 21:50:07 10° NNE
Meteor 1-10 Rocket 4.4 21:40:49 22° SSW 21:44:47 80° WNW 21:50:47 10° NNE
Cosmos 2227 Rocket 3.4 21:44:30 18° SSE 21:47:36 29° ESE 21:52:24 10° NE
Meteor 2-20 4.4 21:45:33 23° SSW 21:49:37 86° WNW 21:55:46 10° NNE
Okean 3 Rocket 4.2 21:45:58 10° N 21:50:25 53° ENE 21:53:40 18° SE
Cosmos 1271 Rocket 4.2 21:52:42 14° WSW 21:54:48 24° WNW 21:57:39 10° N
CZ-4C R/B 3.7 21:49:40 10° WNW 21:55:10 46° NNE 22:02:17 10° E
Cosmos 192 4.3 21:51:11 10° NNW 21:56:08 77° WSW 21:59:23 21° SSE
Cosmos 2221 3.5 21:54:54 18° SW 21:57:32 37° WNW 22:01:28 10° N
GP-B 3.7 21:54:56 10° N 21:59:07 45° W 22:01:32 22° SW
Cosmos 2263 Rocket 3.7 21:56:11 14° SSE 21:59:30 23° ESE 22:03:49 10° NE
Meteor 1-27 Rocket 3.8 21:56:56 23° SSW 22:00:45 87° WNW 22:06:32 10° NNE
Cosmos 1842 Rocket 3.9 22:01:31 24° SSE 22:03:57 57° E 22:08:19 10° NNE
Cosmos 1238 Rocket 2.8 22:02:31 28° SSW 22:04:32 85° WNW 22:08:57 10° N
Cosmos 1943 4.5 21:59:27 10° NNW 22:04:48 41° NE 22:10:06 10° ESE
Cosmos 1805 Rocket 4.2 22:06:08 10° N 22:10:24 51° ENE 22:13:49 15° SE
Sich 1 2.9 22:09:34 10° NNW 22:13:46 87° ENE 22:16:18 23° SSE
Iridium 4 Rocket 3.8 22:11:57 22° S 22:15:49 85° E 22:21:41 10° N
Landsat 5 3.3 22:12:44 10° NNE 22:16:54 89° W 22:19:05 26° SSW
CZ-2C R/B 3.6 22:11:18 10° N 22:16:57 62° WNW 22:21:10 19° SW
Cosmos 2297 Rocket 2.2 22:17:12 21° SSW 22:21:09 87° SE 22:26:51 10° NE
SL-19 R/B 4.4 22:19:08 18° SE 22:21:14 51° ENE 22:24:24 10° N
Cosmos 1655 Rocket 4.3 22:16:24 10° NNW 22:22:29 57° W 22:26:42 20° SSW
Cosmos 1758 3.0 22:19:26 10° N 22:23:04 82° ENE 22:25:11 24° SSE
USA 234 3.2 22:18:49 10° ENE 22:25:22 69° SSE 22:31:54 10° WSW
Alouette 2 Rocket 4.4 22:30:13 10° NW 22:33:32 32° W 22:35:30 22° SW
Cosmos 1408 Rocket 3.5 22:30:45 10° N 22:35:04 85° E 22:38:12 18° SSE
ATLAS 2AS CENTAUR R/B 2.9 22:28:27 10° NW 22:35:17 75° NE 22:42:05 10° ESE
Cosmos 1340 Rocket 2.8 22:32:34 10° NNW 22:36:25 74° ENE 22:39:16 17° SSE
Meteor 2-10 Rocket 4.0 22:31:57 10° NNW 22:37:15 51° W 22:40:59 20° SSW
SeaSat 1 3.1 22:34:43 22° SSW 22:37:18 36° WSW 22:41:50 10° NW
Iridium 45 4.4 22:37:58 25° S 22:39:54 83° E 22:43:20 10° N
SL-14 R/B 3.2 22:38:08 24° S 22:40:20 78° E 22:44:09 10° NNE
Cosmos 1125 Rocket 3.5 22:38:31 10° NNW 22:43:49 76° WSW 22:48:47 12° SSE
BlueWalker 3 2.9 22:43:33 24° S 22:44:21 26° SSE 22:47:22 10° E
Cosmos 1066 Rocket 4.2 22:40:54 20° SSW 22:44:42 74° WNW 22:50:16 10° NNE
DELTA 2 DEB (DPAF) 3.8 22:50:17 10° N 22:53:49 60° WNW 22:55:55 22° SW
Meteor 1-18 Rocket 4.2 22:49:51 19° SSW 22:53:57 80° WNW 22:59:41 10° NNE
Cosmos 2084 3.4 22:50:30 10° WNW 22:54:33 53° SW 22:58:33 10° SSE
Cosmos 1814 Rocket 4.1 22:59:05 18° SW 23:02:58 77° WNW 23:08:16 10° NNE
Cosmos 1953 2.8 22:59:23 10° N 23:02:59 51° ENE 23:06:33 10° SSE
SL-16 R/B 2.4 22:57:46 10° NW 23:03:19 53° WSW 23:08:40 11° S
Lacrosse 4 Rocket 1.4 23:01:08 18° SW 23:04:00 78° NW 23:08:08 10° NE
BREEZE-M DEB (TANK) 3.9 23:07:01 20° S 23:07:14 20° S 23:10:58 10° SE
CZ-2D R/B 4.4 23:04:17 10° NE 23:08:05 19° E 23:11:53 10° SE
IDEFIX/ARIANE 42P 3.1 23:03:00 10° NNE 23:08:09 55° E 23:12:47 13° S
Cosmos 2219 4.1 23:04:46 13° S 23:09:19 41° ESE 23:14:33 10° NE
NPP 4.4 23:08:05 10° NNE 23:13:21 49° E 23:18:30 10° S
CZ-4C R/B 4.2 23:10:41 10° N 23:13:39 30° WNW 23:15:55 15° WSW
Cosmos 2237 Rocket 3.9 23:11:35 10° WNW 23:15:00 16° W 23:17:27 13° SW
H-2A R/B 4.4 23:12:07 10° NE 23:15:54 19° E 23:19:40 10° SE
Cosmos 1633 Rocket 3.6 23:13:11 10° N 23:17:28 59° ENE 23:21:44 10° SSE
Cosmos 1151 Rocket 3.0 23:15:33 18° SSW 23:18:42 72° WNW 23:23:03 10° N
Cosmos 1500 Rocket 4.1 23:15:25 10° NNW 23:19:38 43° W 23:22:48 16° SSW
S3M 4.1 23:14:46 12° S 23:20:32 75° E 23:26:40 10° NNE
PSLV R/B 4.0 23:17:43 10° N 23:21:33 59° WNW 23:24:23 17° SW
CZ-2C R/B 4.5 23:18:46 10° WSW 23:21:42 15° W 23:24:38 10° NW
ACS3 Solar Sail 2.1 23:17:38 10° N 23:23:26 55° WNW 23:28:30 14° SW
Meteor 1-22 Rocket 4.3 23:18:52 10° NNW 23:24:46 78° W 23:30:22 10° S
CENTAUR R/B 4.1 23:21:06 10° SSE 23:25:29 23° ESE 23:30:39 10° ENE
In-Cosmos 22 4.5 23:23:38 15° SSW 23:28:08 59° WNW 23:33:46 10° N
Cosmos 2315 Rocket 4.3 23:22:24 10° S 23:28:42 70° E 23:35:01 10° NNE
Cosmos 2227 Rocket 2.4 23:26:17 14° SW 23:31:13 72° NW 23:36:55 10° NNE
DMSP B5D2-2 4.5 23:27:26 10° SSE 23:32:35 67° ENE 23:37:48 10° NNW
H-2A R/B 3.9 23:31:28 10° SE 23:34:42 33° ENE 23:38:00 10° N
Envisat 4.4 23:31:07 10° NNE 23:35:44 34° E 23:40:20 10° SSE
Cosmos 2263 Rocket 2.2 23:37:50 13° SW 23:42:48 84° NW 23:48:25 10° NE
BREEZE-M DEB (TANK) 3.3 23:35:56 10° WSW 23:43:52 39° S 23:47:05 10° ESE
MSX 3.9 23:38:08 10° NNE 23:43:57 87° WNW 23:49:33 11° SSW
CZ-4C R/B 2.9 23:37:49 10° NW 23:44:09 82° NE 23:52:20 10° SE
Cosmos 1709 Rocket 4.1 23:38:54 10° NNW 23:44:57 60° W 23:51:03 10° S
SL-16 R/B 4.3 23:42:22 10° ESE 23:47:56 35° NE 23:53:29 10° N
Cosmos 1666 Rocket 3.6 23:44:34 10° NNW 23:49:00 64° W 23:53:23 10° S
Cosmos 1943 3.3 23:43:33 10° NW 23:49:04 57° WSW 23:54:33 10° SSE
Meteor 1-15 Rocket 4.4 23:44:57 10° NNW 23:50:52 71° W 23:56:45 10° S
Cosmos 1867 3.6 23:45:45 10° NW 23:51:11 67° SW 23:56:36 10° SSE
Cosmos 1743 Rocket 4.4 23:48:49 10° NNW 23:52:41 32° W 23:56:12 12° SSW
